Weather History for KCDC - October, 2012

Change the Weather History Date:

Friday, October 19, 2012

  Actual Average Record
Temperature  
Mean Temperature 51 °F 48 °F  
Max Temperature 74 °F 65 °F 82 °F (2003)
Min Temperature 28 °F 33 °F 22 °F (2013)
Degree Days  
Heating Degree Days 14 16  
Month to date heating degree days 192 249  
Since 1 July heating degree days 264 392  
Cooling Degree Days 0 0  
Month to date cooling degree days 0 0  
Year to date cooling degree days 715 588  
Moisture  
Dew Point 26 °F    
Average Humidity 45    
Maximum Humidity 75    
Minimum Humidity 14    
Precipitation  
Precipitation 0.00 in 0.05 in 0.92 in (1990)
Month to date precipitation 0.97 0.80  
Year to date precipitation 10.83 9.00  
Sea Level Pressure  
Sea Level Pressure 30.04 in    
Wind  
Wind Speed 2 mph (SSE)    
Max Wind Speed 8 mph    
Max Gust Speed 10 mph    
Visibility 10 miles    
Events      
T = Trace of Precipitation, MM = Missing Value Source: NWS Daily Summary

Daily Weather History Graph

Daily Weather History Graph

Search for Another Location

Airport or City:

Trip Planner

Search our weather history database for the weather conditions in past years. The results will help you decide how hot, cold, wet, or windy it might be!

Date:

Astronomy

Oct. 19, 2012 Rise Set
Actual Time 7:45 AM MDT 6:48 PM MDT
Civil Twilight 7:18 AM MDT 7:15 PM MDT
Nautical Twilight 6:47 AM MDT 7:45 PM MDT
Astronomical Twilight 6:17 AM MDT 8:16 PM MDT
Moon 12:27 PM MDT (10/19) 10:35 PM MDT (10/19)
Length of Visible Light 11h 56m
Length of Day
11h 03m
Waxing Crescent, 24% of the Moon is Illuminated
Oct 19
Waxing Crescent
Oct 21
First Quarter
Oct 29
Full
Nov 6
Last Quarter
Nov 13
New

Hourly Weather History & Observations

Time (MDT) Temp. Windchill Dew Point Humidity Pressure Visibility Wind Dir Wind Speed Gust Speed Precip Events Conditions
12:53 AM 41.0 °F - 28.0 °F 60% 30.13 in 10.0 mi Calm Calm - N/A   Clear
1:53 AM 33.1 °F - 21.9 °F 64% 30.14 in 10.0 mi Calm Calm - N/A   Clear
2:53 AM 35.1 °F - 23.0 °F 61% 30.13 in 10.0 mi Calm Calm - N/A   Clear
3:53 AM 35.1 °F 32.2 °F 26.1 °F 70% 30.12 in 10.0 mi East 3.5 mph - N/A   Clear
4:53 AM 34.0 °F - 25.0 °F 70% 30.11 in 10.0 mi Calm Calm - N/A   Clear
5:53 AM 34.0 °F - 25.0 °F 70% 30.12 in 10.0 mi Calm Calm - N/A   Clear
6:53 AM 33.1 °F 28.7 °F 26.1 °F 75% 30.15 in 10.0 mi ESE 4.6 mph - N/A   Clear
7:53 AM 28.0 °F - 23.0 °F 81% 30.18 in 10.0 mi Calm Calm - N/A   Clear
8:53 AM 42.1 °F - 28.0 °F 58% 30.13 in 10.0 mi Calm Calm - N/A   Clear
9:53 AM 45.0 °F 42.6 °F 28.9 °F 53% 30.15 in 10.0 mi NE 4.6 mph - N/A   Clear
10:53 AM 54.0 °F - 28.9 °F 38% 30.11 in 10.0 mi Calm Calm - N/A   Clear
11:53 AM 61.0 °F - 28.9 °F 30% 30.08 in 10.0 mi NW 3.5 mph - N/A   Clear
12:53 PM 66.0 °F - 28.0 °F 24% 30.04 in 10.0 mi NW 3.5 mph - N/A   Clear
1:53 PM 70.0 °F - 28.0 °F 21% 30.02 in 10.0 mi Calm Calm - N/A   Clear
2:53 PM 72.0 °F - 21.9 °F 15% 29.97 in 10.0 mi Calm Calm - N/A   Clear
3:53 PM 73.9 °F - 21.0 °F 14% 29.94 in 10.0 mi WSW 3.5 mph - N/A   Clear
4:53 PM 73.9 °F - 21.0 °F 14% 29.94 in 10.0 mi Variable 3.5 mph - N/A   Clear
5:53 PM 73.9 °F - 21.0 °F 14% 29.92 in 10.0 mi Calm Calm - N/A   Clear
6:53 PM 61.0 °F - 28.0 °F 29% 29.95 in 10.0 mi SW 8.1 mph - N/A   Clear
8:53 PM 55.0 °F - 28.0 °F 35% 29.96 in 10.0 mi South 5.8 mph - N/A   Clear
9:53 PM 57.0 °F - 26.1 °F 30% 29.94 in 10.0 mi SSE 9.2 mph - N/A   Clear
10:53 PM 55.0 °F - 26.1 °F 33% 29.91 in 10.0 mi SSE 8.1 mph - N/A   Clear
11:53 PM 54.0 °F - 26.1 °F 34% 29.89 in 10.0 mi SE 4.6 mph - N/A   Clear